Theta_e
320 320 321 321 320 320 323 324 323 324 322 319 320 321 323 326 325 325 325 325 328 330 330 333 333 333 333 334 333 332 334 336 335 334 337 338 337 333 324 323 323 325 335 339 336 334 331 326 326 329 326 325 328 332 332 332 333 333 334 334 333 332 329 327 325 325 322 318 318 320 321 322 319 316 317 320 319 316 316 319 319 320 322 319 321 324 321 314 310 310 309 309 310 311 311 312 312
321 321 320 320 319 320 325 324 321 322 320 318 319 321 323 325 325 325 325 326 330 331 331 333 333 334 334 334 333 332 334 336 337 337 338 336 336 333 323 321 321 322 331 337 336 335 334 328 326 327 325 325 326 331 333 332 332 334 334 333 332 330 327 325 324 325 323 320 321 323 324 323 320 317 317 318 321 320 316 318 322 323 321 320 322 320 319 318 313 310 310 311 311 311 312 314 315
321 321 320 320 321 320 323 322 320 319 317 318 319 322 323 324 325 326 328 330 332 330 332 333 333 334 333 333 332 332 334 336 337 338 337 336 337 330 322 322 321 320 326 334 336 334 331 325 322 318 319 325 326 331 334 333 333 334 334 332 332 328 325 326 326 325 325 323 321 323 325 324 321 320 320 322 324 322 320 321 325 323 321 325 326 322 323 325 322 314 310 312 311 312 314 316 316
321 320 320 321 323 322 322 322 322 318 317 317 317 321 322 324 326 329 332 332 332 331 333 333 333 334 334 334 332 333 336 338 338 338 337 336 336 327 322 322 320 318 321 330 334 333 326 317 316 313 318 324 326 331 333 333 333 333 333 331 330 326 323 324 325 323 324 324 320 320 323 323 322 319 320 324 325 324 323 323 324 322 323 327 324 324 327 328 328 321 312 312 312 312 315 317 316
321 320 319 321 323 323 322 321 322 319 318 318 318 321 321 324 326 331 333 331 331 332 333 332 334 334 333 335 334 335 338 338 338 338 337 336 336 326 319 320 321 318 320 328 331 332 323 311 314 320 328 328 327 330 332 333 333 333 331 329 326 322 321 323 325 321 320 322 319 319 322 324 323 321 321 323 325 325 324 323 324 324 325 325 323 325 328 327 326 320 312 312 312 313 315 317 316
320 320 319 319 321 322 321 319 319 319 320 321 319 320 320 323 328 332 332 331 330 331 332 332 334 333 333 335 335 337 338 338 338 337 336 337 335 324 316 321 325 323 324 328 331 331 318 310 317 326 333 331 330 330 331 333 332 332 330 328 324 321 321 321 322 321 319 319 319 321 322 324 323 322 323 322 321 322 324 323 324 326 325 325 324 322 321 319 318 314 311 312 312 313 315 316 316
320 322 322 321 321 321 321 319 319 320 321 321 320 320 320 323 329 332 331 330 329 329 330 333 334 332 333 334 335 337 336 337 338 337 336 337 332 320 316 324 326 326 325 326 332 330 313 313 320 327 332 331 332 330 332 333 332 332 329 328 325 322 323 320 320 321 320 319 323 326 327 327 323 321 322 322 320 319 322 322 323 325 326 326 326 323 317 313 312 312 312 312 312 313 314 315 315
320 323 323 322 323 322 322 319 320 322 321 321 320 320 320 324 328 330 330 329 328 329 330 332 333 330 333 332 336 337 334 336 338 337 337 335 327 315 318 326 326 324 323 325 332 327 313 317 321 326 330 330 331 331 333 332 331 331 329 327 323 321 322 321 323 324 323 324 326 328 328 326 323 322 322 323 321 320 320 320 322 324 324 325 327 326 320 314 312 312 312 312 312 313 314 314 314
320 322 323 323 324 323 322 319 320 321 321 321 320 319 320 324 327 328 328 328 328 328 330 331 331 329 331 332 336 337 334 336 337 337 336 331 320 315 322 328 327 323 322 326 331 325 318 321 322 326 330 330 331 331 332 331 330 330 327 323 319 319 320 321 323 325 325 326 326 324 322 320 321 321 320 319 318 319 318 319 321 322 322 323 326 326 322 316 312 312 312 312 312 313 314 315 315
321 322 323 324 324 322 321 320 319 321 321 320 321 320 320 323 327 328 327 328 326 327 330 331 330 328 329 332 335 337 336 336 337 336 334 330 319 318 325 327 325 321 322 328 332 327 322 321 322 327 330 331 330 330 331 328 328 327 324 320 316 316 317 318 320 321 322 323 321 319 316 316 318 316 315 315 315 315 315 316 318 319 319 320 322 322 319 315 312 312 313 313 313 314 314 315 315
322 322 322 323 322 321 321 320 319 320 321 320 321 320 320 323 326 328 327 326 325 327 330 329 327 326 327 331 336 337 335 335 337 335 334 331 321 321 325 324 321 320 324 330 333 330 325 322 323 326 329 330 328 329 327 325 326 325 321 316 313 313 314 316 320 322 321 320 317 315 314 313 312 311 313 315 316 318 317 315 314 314 314 315 316 316 314 313 312 313 313 314 314 314 315 315 315
323 323 322 321 322 323 323 321 320 320 321 320 321 320 320 324 326 327 326 325 324 327 328 326 326 325 325 328 336 336 333 336 337 335 334 330 323 322 323 322 319 320 326 331 332 330 328 326 325 326 327 327 326 327 324 322 322 319 315 312 311 311 311 315 321 325 325 323 317 312 310 309 309 310 313 315 315 317 317 315 312 312 312 312 313 313 313 313 313 314 314 314 314 315 315 315 315
323 324 323 322 323 324 323 322 321 319 320 321 323 322 321 324 327 326 325 324 323 324 325 326 325 323 324 329 336 335 334 336 336 335 334 329 324 321 321 319 318 322 328 331 331 331 330 328 329 328 326 325 326 326 323 321 318 315 314 312 311 311 311 316 320 324 327 327 322 314 309 309 309 310 312 313 313 313 314 313 312 312 313 313 313 313 313 314 314 314 315 315 315 315 315 315 316
324 324 323 324 324 324 323 323 322 318 319 322 323 322 323 325 326 325 324 323 322 325 326 326 325 323 324 328 334 335 335 336 336 335 333 328 323 320 319 317 320 325 327 329 330 330 330 328 330 329 326 326 327 326 323 322 319 316 316 312 310 310 310 315 318 321 326 327 322 315 310 309 309 311 312 313 313 314 314 314 314 313 313 313 313 314 314 314 314 314 314 315 315 316 316 316 317
324 324 323 324 323 323 322 323 322 318 319 321 321 322 324 323 323 324 324 323 324 326 325 324 323 324 323 323 332 336 335 336 336 335 333 328 321 320 318 317 324 326 325 328 329 329 328 326 329 329 328 327 327 326 323 322 320 316 315 311 309 309 309 312 315 319 322 320 317 313 310 309 309 311 312 313 314 315 315 314 314 314 314 314 314 314 314 315 314 315 315 315 316 316 317 317 317
322 323 323 323 322 323 322 323 322 319 319 320 319 321 324 322 321 322 322 323 325 325 323 325 323 323 324 324 334 337 334 335 336 334 332 327 320 320 318 320 327 327 326 329 329 328 328 326 327 329 329 328 328 326 323 320 317 314 312 310 308 309 309 310 312 314 315 313 312 311 310 308 310 312 312 314 315 315 315 315 315 315 315 314 314 315 314 315 315 315 316 316 317 317 317 317 317
321 322 323 322 322 323 322 323 321 318 319 319 319 320 323 323 321 321 321 321 323 324 324 328 324 322 327 324 330 336 334 336 336 334 332 325 321 322 322 326 329 328 328 329 328 328 328 328 326 328 330 329 329 328 324 318 313 311 310 309 309 309 309 309 310 310 311 310 309 309 309 309 310 312 313 314 315 315 316 316 316 315 315 315 315 315 315 316 315 316 317 317 318 317 318 317 317
321 323 322 322 323 323 320 320 319 319 319 319 318 318 321 323 321 321 321 321 323 324 324 328 324 322 326 320 326 335 334 336 336 334 332 325 324 327 327 329 329 329 329 328 328 327 327 328 327 328 329 329 329 328 325 315 309 310 309 309 309 308 308 308 309 309 308 309 309 309 313 314 312 312 313 314 315 315 316 316 316 315 315 315 315 315 316 316 316 317 317 318 318 318 318 317 318
322 323 323 322 322 320 318 318 317 318 317 318 319 317 319 320 322 321 321 321 322 324 323 327 325 324 326 318 326 335 333 336 336 334 332 326 326 328 330 330 330 330 330 330 328 325 324 325 326 327 325 327 329 328 324 314 310 312 309 309 309 308 308 308 308 308 308 308 308 309 315 315 311 311 312 313 315 315 316 316 316 316 316 316 316 316 316 317 317 318 318 318 318 318 319 319 320
321 322 324 322 320 318 317 317 316 316 316 317 318 316 317 318 320 321 321 322 321 323 322 326 326 327 328 321 327 334 332 335 336 334 332 329 328 328 330 331 330 331 330 330 328 324 322 321 323 325 321 324 326 323 318 313 314 314 310 308 309 309 308 308 308 308 308 308 307 308 311 311 309 310 312 313 315 315 316 316 316 316 316 316 316 316 317 317 318 318 319 319 319 320 320 321 321
320 321 323 320 319 318 316 316 315 315 315 316 317 317 318 317 318 319 320 320 321 322 321 324 324 326 331 325 328 334 333 335 336 335 334 331 330 329 331 332 331 331 330 330 328 323 321 318 320 321 315 315 318 314 311 311 311 310 309 309 309 309 308 308 308 308 308 307 307 307 308 308 308 310 311 313 314 315 316 316 316 316 316 316 316 317 317 318 318 319 320 320 321 321 322 322 322
319 319 319 318 318 318 316 316 315 315 315 315 317 317 317 317 317 318 319 319 320 321 319 321 321 324 330 324 327 332 331 334 335 335 335 333 332 330 331 332 331 332 330 330 328 323 319 316 316 317 313 310 312 310 309 309 309 309 309 309 309 309 309 308 308 308 308 308 307 307 307 307 308 310 311 313 314 315 315 316 316 316 316 316 317 317 318 318 319 319 321 322 322 323 323 323 323
319 317 317 317 317 318 317 318 317 316 316 317 317 316 315 316 317 317 318 319 319 320 318 319 318 323 329 323 323 326 327 333 334 335 336 335 334 332 332 332 332 331 331 330 328 323 319 317 316 316 315 313 313 311 310 310 310 310 310 309 310 309 309 309 309 308 308 308 307 307 307 307 308 309 311 313 314 314 315 315 315 316 316 317 317 317 318 319 319 320 322 323 324 324 323 323 323
320 317 316 316 317 318 318 318 318 317 318 318 317 315 315 316 318 317 318 318 319 319 318 318 317 325 331 325 320 320 322 328 332 334 335 335 335 334 333 333 332 332 331 330 327 324 321 320 319 319 318 317 316 315 313 312 311 311 310 310 310 309 310 309 309 309 309 308 307 307 307 308 308 309 311 313 314 314 314 315 315 316 316 317 317 317 318 319 321 322 323 324 324 324 324 324 323
322 319 317 317 318 320 319 319 319 319 319 318 318 318 318 317 316 316 317 317 317 318 318 317 316 324 329 326 322 320 322 327 332 334 334 335 335 335 334 334 333 333 332 330 328 325 322 321 321 321 321 321 321 318 316 314 313 313 312 310 310 310 309 310 310 310 310 309 308 308 307 308 308 310 311 313 314 314 315 315 315 316 316 317 317 318 320 321 323 324 324 324 324 324 324 324 324
323 321 319 319 320 320 320 320 321 321 320 319 320 321 319 316 315 316 317 317 317 317 318 317 318 321 325 328 326 324 325 328 332 334 334 334 335 335 334 334 334 334 333 332 330 329 325 321 321 322 323 323 323 322 320 317 315 314 314 312 311 310 310 310 311 311 311 310 310 309 308 308 308 310 311 312 314 314 315 315 316 317 317 318 319 321 322 323 324 324 324 324 324 324 324 324 323
322 321 320 321 321 322 321 321 322 322 321 320 320 321 320 316 314 317 318 316 316 316 318 319 320 323 325 328 329 328 329 329 330 334 334 334 334 335 334 334 334 334 334 333 332 331 329 324 321 321 322 323 324 324 323 320 317 315 316 315 313 311 311 311 311 312 312 311 311 311 310 309 309 311 312 313 314 315 316 316 317 317 319 321 321 322 323 323 324 324 324 323 323 324 323 323 323
321 321 322 322 323 324 323 323 324 323 321 320 319 320 321 318 313 316 318 317 316 316 320 322 321 324 325 328 328 328 331 332 332 334 334 333 334 334 334 334 334 334 334 334 333 332 331 327 323 322 322 323 323 324 324 323 320 317 316 317 316 315 313 312 312 314 314 314 313 313 312 311 312 313 314 314 315 316 316 317 319 320 322 324 323 323 323 323 324 324 323 323 323 322 322 323 322
321 322 323 323 324 324 324 326 323 322 321 319 319 321 323 320 315 317 318 318 316 317 321 323 322 323 326 329 328 326 329 332 334 334 333 333 333 334 334 334 334 334 334 333 333 332 332 330 327 324 323 323 324 323 324 324 323 321 319 318 318 318 317 315 314 315 316 317 316 316 315 314 314 315 315 316 316 318 319 320 322 323 324 324 324 323 323 323 324 324 323 323 323 322 322 322 322
322 322 323 324 325 324 325 326 320 319 320 318 320 323 324 322 319 318 318 317 317 318 321 322 322 323 326 330 330 328 327 330 332 331 331 333 333 334 333 334 333 334 334 333 333 332 332 331 329 328 326 326 325 324 324 324 324 323 322 321 320 319 319 319 318 317 317 318 318 319 319 317 317 318 319 319 320 321 322 323 324 325 325 324 324 324 323 324 324 323 323 323 323 323 322 322 322
322 322 322 324 325 326 323 321 319 319 318 315 319 323 323 323 321 318 317 317 318 319 320 321 323 324 326 329 330 330 328 328 330 330 329 330 333 333 332 333 333 333 333 333 333 332 332 331 330 329 329 329 328 326 326 325 325 324 324 323 322 321 320 320 320 320 319 318 319 319 320 320 320 321 321 321 321 322 323 324 325 325 325 324 324 324 323 323 324 323 323 323 323 322 322 322 322
323 324 325 325 325 326 323 320 319 319 316 313 317 321 322 322 320 317 315 318 319 319 319 320 323 324 326 328 329 330 330 329 329 330 328 327 330 330 328 331 333 333 333 333 333 332 332 330 329 329 329 330 330 329 328 327 326 325 325 325 324 323 322 321 321 321 321 320 319 319 320 320 320 321 321 322 323 324 324 325 325 325 324 323 324 324 323 322 323 323 322 322 322 322 322 322 322
324 325 328 327 326 326 325 320 317 317 316 314 316 318 320 319 317 315 313 316 318 319 319 319 322 324 324 327 328 328 330 331 327 325 326 324 325 327 326 327 330 332 332 332 333 332 332 330 328 328 328 329 330 330 330 329 327 326 326 326 326 325 324 323 322 322 322 322 321 320 320 320 320 321 321 321 322 324 325 325 325 325 324 323 323 323 323 323 323 322 322 322 322 322 322 323 322
326 326 327 327 327 326 325 319 314 314 316 316 316 316 317 317 317 316 314 314 317 318 318 318 321 324 325 325 327 328 329 331 325 318 319 320 321 324 326 325 326 329 331 332 332 332 332 331 328 327 328 329 330 331 331 330 329 328 327 327 327 327 326 325 324 323 323 323 322 321 321 320 320 320 321 322 322 324 325 325 324 325 324 324 323 322 323 323 323 322 322 323 323 321 321 322 320
327 326 327 327 326 324 324 321 315 313 315 316 317 316 317 316 316 317 317 316 316 317 317 318 319 321 324 324 324 326 328 328 322 315 316 317 318 320 323 324 323 325 328 330 331 331 331 331 329 328 328 329 329 330 331 331 331 330 329 329 328 328 328 327 326 326 326 325 324 323 322 321 321 321 322 323 323 324 325 324 324 324 324 324 323 323 323 323 322 322 322 323 323 321 320 319 316
327 326 326 327 326 323 323 322 317 315 317 318 318 318 318 317 316 317 318 317 316 317 316 317 318 319 322 322 322 322 323 324 320 319 319 317 317 317 319 321 321 321 324 327 330 330 330 329 328 327 328 329 328 328 329 330 331 330 330 330 329 329 328 328 328 327 327 327 326 325 324 322 322 322 323 324 323 323 324 324 325 324 324 324 323 323 324 324 323 323 323 322 320 319 320 320 316
326 327 327 326 327 325 323 321 317 315 319 321 320 320 319 318 317 316 318 318 316 317 316 317 318 319 320 322 322 319 318 320 319 320 321 317 316 316 317 319 319 319 320 323 326 328 327 326 326 326 326 327 327 326 327 328 329 330 330 329 330 330 329 329 329 328 328 327 327 326 326 324 322 322 323 325 324 323 324 324 324 324 324 324 323 324 324 323 324 324 323 321 318 319 320 321 318
326 327 327 326 326 326 324 320 316 315 318 322 322 321 321 319 317 316 317 317 317 316 316 316 317 318 319 320 321 319 318 319 316 318 319 317 315 316 316 317 318 317 317 318 321 323 324 324 324 324 324 325 325 325 325 326 327 328 328 328 328 329 329 329 329 329 328 327 327 327 326 325 324 322 323 325 325 324 324 324 324 324 324 324 324 324 323 323 324 322 320 320 319 320 320 321 318
326 327 327 327 327 326 324 320 316 314 317 321 321 320 321 320 318 318 318 317 317 317 316 316 316 317 318 320 320 320 320 318 314 315 316 315 315 315 315 316 316 316 316 316 317 320 322 322 322 322 323 323 322 323 323 324 325 326 326 326 327 328 328 328 328 329 328 327 327 327 326 326 326 325 324 325 324 324 324 324 325 324 324 324 324 324 323 323 324 320 318 319 319 321 323 321 317
326 326 327 327 326 325 325 321 315 314 316 319 319 318 319 319 319 319 319 319 318 317 317 316 316 316 317 318 319 321 320 317 313 315 315 314 315 314 315 315 315 316 316 316 316 317 319 320 320 321 322 322 321 321 321 322 323 324 325 325 326 327 328 328 328 329 328 328 328 327 326 327 327 326 325 326 325 324 324 324 325 325 324 324 324 324 323 324 324 320 318 320 319 321 324 320 315
326 326 326 326 326 325 324 320 315 314 316 316 316 317 319 319 320 320 321 322 320 320 319 317 316 316 316 317 318 319 319 317 315 315 315 314 314 314 314 315 315 315 315 315 315 315 316 317 318 319 320 320 320 320 320 321 322 322 324 325 326 328 328 329 329 329 329 328 328 327 327 328 327 327 327 326 325 324 324 325 325 325 324 324 324 324 324 324 323 320 319 320 320 320 321 320 316
325 325 325 325 325 324 323 321 318 320 322 317 315 320 323 321 321 321 322 323 322 322 321 318 317 316 316 317 317 317 317 317 316 316 316 315 314 314 314 314 315 315 315 315 315 315 315 315 316 317 318 319 320 319 320 321 321 321 322 323 325 327 328 329 328 328 329 328 328 328 328 328 327 327 327 326 325 324 324 325 325 324 324 324 324 324 324 323 321 320 320 320 321 319 318 319 317
326 325 323 324 325 324 323 321 321 324 326 318 314 319 323 322 322 322 322 323 324 325 322 319 318 317 317 316 316 316 316 316 316 316 317 316 314 315 314 314 314 314 314 315 315 315 315 315 315 316 316 317 318 319 319 320 321 321 321 321 322 323 325 325 324 325 327 327 327 327 327 327 328 327 327 326 325 325 325 325 325 325 324 324 324 324 323 322 319 320 321 320 322 321 316 316 316
327 324 322 323 323 324 324 322 322 323 323 319 315 317 319 320 320 320 321 322 323 324 323 320 318 318 317 316 316 316 316 317 317 316 317 316 315 315 315 315 315 315 314 314 314 315 315 315 315 315 316 316 316 317 318 318 319 320 320 321 320 321 322 322 322 323 324 325 326 326 326 326 327 327 326 326 325 325 325 325 325 325 325 322 322 323 322 320 319 321 323 320 321 320 316 314 313
325 322 322 322 322 324 324 323 323 319 319 322 321 318 319 320 320 319 320 320 321 322 322 321 320 319 318 317 317 317 317 317 317 317 317 316 317 316 316 316 315 315 314 314 314 314 314 315 315 316 315 316 315 316 316 317 317 318 319 320 319 320 320 321 322 322 323 325 326 327 327 327 327 326 325 326 326 325 324 325 325 324 324 321 319 321 321 318 318 324 327 322 318 317 315 313 310
322 321 322 322 322 323 322 323 321 317 319 323 324 320 320 322 321 320 320 319 319 321 321 322 321 319 318 317 317 317 317 317 318 318 318 318 318 317 317 316 316 315 314 314 314 313 313 314 314 315 315 315 315 315 316 316 317 318 318 319 319 319 320 320 321 322 324 325 326 327 327 327 327 327 326 326 325 324 323 323 323 324 324 321 319 321 319 317 319 323 325 321 317 316 315 311 307
321 321 322 321 321 319 319 320 318 319 322 322 322 322 320 322 323 321 322 321 319 320 320 322 322 321 319 317 317 317 317 317 318 318 318 318 318 317 317 317 316 315 314 314 314 313 313 313 313 314 314 314 315 315 315 315 316 317 317 318 318 319 320 320 320 321 323 324 325 326 327 327 326 325 325 325 325 324 323 321 321 323 323 320 320 321 320 320 323 323 322 320 318 318 314 309 305
320 320 321 320 319 317 318 318 317 322 326 320 318 321 320 321 323 321 322 322 319 319 319 320 322 322 321 318 317 317 317 317 317 318 318 318 318 318 317 317 316 315 315 314 314 314 313 313 313 313 313 313 314 314 314 314 315 315 316 317 318 320 321 320 320 321 322 323 323 324 327 327 326 324 324 324 324 323 322 320 319 321 321 318 319 322 321 321 324 324 323 320 317 317 312 306 303
319 319 321 322 320 320 321 320 318 323 323 314 313 317 319 320 321 320 321 321 320 319 319 320 321 321 321 319 318 318 318 317 317 317 318 318 318 318 318 317 317 316 316 315 315 314 314 314 314 313 313 313 313 313 313 313 313 313 315 315 317 319 321 322 322 322 322 322 322 323 325 326 324 323 324 324 322 320 321 321 321 322 321 319 319 321 320 319 319 321 320 318 316 314 308 303 302
317 318 321 324 322 323 325 323 320 323 320 313 313 316 319 320 319 319 319 319 319 319 318 319 320 319 319 319 318 318 317 317 317 317 317 318 317 317 317 317 317 316 316 315 315 315 314 314 314 314 313 313 313 313 313 313 312 312 313 314 315 317 319 321 323 323 323 322 321 321 322 323 322 322 324 323 321 321 322 322 322 322 322 320 318 318 318 317 317 317 317 316 314 310 304 302 302
316 318 321 323 322 324 327 324 323 325 320 314 315 318 321 321 317 316 316 316 315 315 316 316 317 317 316 317 316 316 316 316 316 317 317 317 317 317 317 317 317 317 316 316 315 315 314 314 314 313 313 313 313 313 313 313 312 312 312 313 313 315 317 319 321 323 323 321 320 321 321 321 322 324 325 324 322 322 323 323 323 323 321 320 318 317 318 318 318 317 316 314 311 306 302 302 302
315 317 320 323 322 322 324 320 320 322 319 316 316 318 320 319 318 316 316 316 314 313 314 314 315 315 315 315 314 315 315 315 315 315 315 316 316 317 317 316 316 316 316 315 315 315 315 314 314 313 313 313 313 313 313 312 312 312 312 312 313 314 316 317 319 320 320 320 319 319 319 319 320 324 326 325 324 324 324 324 324 323 322 320 319 320 320 319 318 317 315 311 307 303 302 302 301
316 316 319 320 319 320 322 319 315 317 322 322 317 317 318 318 319 319 318 319 316 314 314 313 315 315 315 316 315 315 315 315 315 315 314 315 315 315 315 315 314 314 314 314 314 315 314 314 314 314 313 313 313 313 313 312 312 312 312 312 312 313 314 315 316 317 316 317 318 318 319 319 320 323 326 326 327 326 326 325 324 323 322 321 320 320 319 318 317 316 313 308 303 301 301 301 300
316 317 318 317 318 319 320 321 320 320 323 324 319 319 319 318 319 319 319 320 319 316 314 313 314 315 315 316 315 316 316 315 315 315 315 315 314 314 314 313 313 314 313 313 313 314 314 314 314 314 314 314 313 313 313 313 312 312 312 312 312 313 313 314 315 315 315 316 317 317 319 319 320 324 326 327 327 327 327 326 324 324 323 320 319 318 317 316 315 314 309 304 301 300 301 301 300
315 317 318 318 321 322 320 322 324 323 324 324 321 320 319 318 319 318 318 319 318 318 316 314 314 314 315 315 315 315 315 314 315 315 315 315 315 315 314 314 314 314 313 313 313 313 313 313 313 313 314 313 313 313 313 313 312 312 312 312 312 313 313 314 315 315 315 316 316 317 318 318 321 325 326 327 327 327 327 327 325 324 323 320 318 317 318 315 313 311 306 301 300 300 301 300 300
314 316 317 318 321 321 321 322 322 322 323 323 323 321 319 319 319 318 319 319 318 318 318 316 316 316 316 315 314 314 313 313 313 313 314 315 314 315 314 314 315 314 314 313 313 313 313 313 313 313 312 312 312 312 312 313 312 312 312 312 313 313 313 314 315 315 316 316 316 317 317 319 322 325 326 326 326 327 328 328 326 324 323 321 318 318 319 316 311 308 304 300 300 300 299 300 301
314 315 318 318 318 317 319 321 320 321 322 323 324 324 320 319 319 319 319 319 319 319 318 318 318 317 316 314 312 312 311 311 311 312 312 312 312 313 313 313 314 314 315 314 314 314 313 313 313 313 312 311 311 311 311 312 312 312 313 312 313 313 313 313 314 315 316 317 317 318 319 321 324 325 326 326 326 326 327 328 327 325 324 321 319 320 321 317 310 306 301 299 300 300 299 300 302
315 316 317 318 318 317 320 322 320 320 322 323 323 323 321 318 317 318 318 318 319 319 319 319 318 316 314 313 312 311 310 311 311 311 312 311 311 311 312 312 312 313 314 314 314 313 313 313 313 313 312 311 310 310 311 311 311 312 312 312 313 313 313 313 314 315 317 318 320 321 322 323 325 326 326 326 326 326 327 328 327 326 324 321 319 320 321 316 310 304 300 299 299 299 299 301 302
Wind_Speed
2 3 3 4 5 6 6 5 5 3 3 3 1 0 3 5 2 2 5 4 3 5 4 3 5 4 1 4 4 7 10 6 5 3 3 7 11 16 18 16 17 15 11 10 11 11 7 6 7 8 8 7 6 5 4 3 2 2 2 2 2 3 3 2 2 2 2 4 5 7 8 8 9 9 8 7 7 7 8 9 9 10 10 11 12 12 12 12 14 14 14 14 14 14 13 13 13
3 3 4 5 5 5 5 4 4 2 3 2 2 1 5 5 2 3 4 3 4 7 5 5 6 3 2 4 2 1 7 10 10 10 9 12 13 15 19 16 16 15 11 9 9 10 8 7 8 8 8 7 7 5 5 4 3 3 2 1 2 3 3 3 2 3 4 5 7 8 9 9 9 9 9 9 9 10 10 11 11 10 11 12 12 12 12 12 14 15 15 14 14 14 14 14 13
2 3 4 5 4 6 5 4 5 2 3 1 4 4 4 3 3 2 5 6 8 8 6 6 5 2 1 2 2 1 5 7 9 12 11 14 12 16 19 16 16 15 12 10 8 8 8 8 7 7 8 9 8 7 6 4 4 4 2 1 2 1 4 5 4 6 7 6 6 8 9 9 9 9 10 10 10 10 10 12 11 10 12 13 13 13 13 13 14 14 14 14 14 14 14 14 14
2 3 2 4 6 6 5 5 3 3 2 1 3 5 3 2 4 7 8 8 8 7 6 6 5 2 2 1 1 2 6 6 8 8 11 12 9 18 20 17 17 15 14 12 9 7 8 8 6 7 9 10 9 7 6 4 4 3 1 1 1 1 4 5 5 7 7 6 5 8 9 9 9 9 10 10 10 10 10 11 11 11 12 13 13 14 15 14 12 12 14 14 14 14 14 14 14
2 3 2 4 6 3 3 3 2 4 2 2 2 5 3 2 5 9 8 8 6 5 5 6 4 3 2 3 4 2 5 4 6 7 10 10 10 18 21 18 17 16 15 12 10 7 8 9 7 10 10 10 9 8 6 4 4 2 1 1 1 3 4 6 6 6 6 6 6 8 9 9 9 9 10 9 10 10 10 11 10 11 11 11 12 14 14 13 12 11 13 13 13 13 13 14 14
2 3 3 4 6 4 4 4 3 3 3 3 2 5 2 2 6 9 9 7 5 3 3 6 1 2 3 1 3 4 4 4 5 6 9 8 10 18 21 19 15 15 14 12 10 7 8 9 10 12 10 10 9 8 7 5 3 1 1 1 2 4 5 7 6 6 6 6 8 9 9 9 8 10 10 9 9 10 10 10 10 11 12 12 12 12 12 12 12 11 12 13 13 13 13 14 14
1 3 3 4 4 3 5 4 3 1 5 3 3 4 2 4 7 9 10 7 4 2 3 4 1 2 2 3 4 4 5 6 5 7 8 8 12 19 21 18 15 15 14 13 10 8 10 11 12 11 11 11 10 9 8 5 4 3 2 1 3 4 6 7 6 7 7 8 11 11 10 9 8 9 10 9 9 10 10 9 10 11 12 13 12 11 11 11 11 11 12 13 13 13 13 13 13
1 4 4 4 3 3 5 4 3 1 4 3 3 3 3 5 8 9 8 5 5 5 6 5 3 5 2 3 3 3 4 7 7 8 8 9 15 20 19 16 15 15 15 14 9 9 12 12 12 11 12 11 10 9 8 6 5 4 2 1 2 5 6 7 7 8 9 10 11 10 10 9 8 9 10 10 10 9 9 10 10 10 11 13 12 11 11 11 11 12 12 13 13 13 13 13 12
2 4 5 5 4 3 4 4 2 0 2 2 2 2 2 4 7 8 7 4 4 5 6 6 4 4 3 4 3 6 5 6 8 9 9 11 17 19 17 14 15 15 15 13 9 11 12 12 13 12 12 10 9 8 7 7 5 4 1 1 2 4 6 7 8 9 10 10 10 9 9 9 9 9 9 8 8 8 9 9 9 10 11 12 12 11 10 11 11 12 12 12 12 12 12 12 11
4 5 4 4 4 3 4 3 1 1 3 2 1 3 3 6 8 7 7 5 4 5 5 5 6 4 0 3 4 6 6 7 8 11 11 12 17 18 15 14 15 16 15 11 8 10 12 12 13 13 11 9 9 8 6 5 3 2 1 2 3 4 5 6 8 9 10 10 9 8 8 8 9 8 8 8 7 8 8 8 9 10 10 11 11 11 10 11 11 11 12 11 11 11 11 11 11
6 5 3 4 5 5 4 2 1 2 3 2 1 4 4 7 8 7 7 5 4 4 5 5 5 6 5 1 4 4 4 7 11 13 13 13 17 16 14 14 14 15 13 11 9 9 10 11 12 13 12 10 9 7 4 2 1 1 1 3 4 6 6 7 9 9 7 7 8 7 7 7 8 8 7 7 8 8 8 9 9 10 10 10 11 11 11 11 11 11 11 11 10 11 10 10 10
6 4 4 5 5 5 2 2 1 0 2 3 3 5 5 8 9 7 7 5 5 5 6 7 2 2 6 2 5 4 5 8 12 14 14 15 16 15 14 14 14 14 11 11 9 9 11 11 11 11 11 10 8 6 3 2 3 3 4 4 5 6 6 7 10 9 7 5 6 7 8 8 8 7 7 8 8 8 9 10 10 10 10 10 10 11 11 11 11 11 10 10 10 10 10 10 10
7 4 4 5 4 4 2 2 2 1 2 2 6 5 6 9 9 7 7 5 6 5 5 7 1 2 4 2 6 5 6 11 14 15 15 15 16 15 15 14 13 12 10 10 9 10 12 12 11 11 10 9 8 6 4 4 5 5 5 4 4 5 6 7 9 11 9 7 7 8 9 9 8 7 7 9 9 9 9 9 10 10 10 10 10 11 10 10 10 10 10 10 10 9 9 9 9
7 5 5 4 3 4 3 3 2 2 1 6 7 4 6 6 5 4 5 6 5 3 5 7 3 3 4 3 7 8 10 13 15 15 15 16 17 16 15 14 12 11 10 10 10 10 11 11 12 11 10 9 8 6 5 5 5 4 4 3 4 5 6 6 9 11 10 9 8 8 8 9 8 7 8 9 9 9 9 9 9 9 10 10 10 10 10 9 9 8 8 9 9 9 9 9 9
6 4 5 5 4 4 4 3 2 3 2 8 6 2 5 3 2 2 4 3 3 4 5 6 5 2 1 1 4 11 13 15 17 16 15 17 18 16 15 14 11 10 10 10 10 10 10 11 11 11 10 8 7 7 8 7 5 4 3 3 4 4 5 6 8 10 9 8 7 7 8 9 8 8 8 9 9 8 8 8 9 9 9 9 9 9 9 8 8 7 7 8 8 9 9 9 9
6 3 5 5 6 4 4 4 2 3 4 9 5 2 4 3 2 4 3 2 2 5 6 4 8 4 2 2 5 10 13 16 19 17 16 18 19 16 14 13 10 9 10 10 10 10 10 10 11 11 10 9 7 7 8 8 6 5 5 4 4 5 5 6 7 8 8 7 6 7 9 10 9 8 8 9 8 8 8 8 8 8 8 8 8 7 7 6 6 6 6 8 8 9 9 9 9
6 4 6 5 7 5 1 2 1 2 4 8 5 2 4 4 4 5 5 5 2 5 6 3 9 8 1 2 5 9 13 16 19 18 18 20 19 15 13 12 11 9 9 11 10 10 10 10 11 11 10 10 8 7 7 8 8 7 6 6 6 6 6 6 7 8 8 7 7 8 10 11 9 9 9 8 8 8 8 8 7 7 7 7 7 6 5 5 4 5 6 7 8 9 9 9 10
6 5 6 6 7 3 3 4 5 3 4 7 6 3 4 2 3 4 5 7 6 5 7 7 10 10 8 6 6 12 14 16 19 19 20 22 19 15 13 13 12 11 9 10 10 11 11 10 11 10 10 11 11 10 9 10 10 8 8 8 7 7 7 7 7 8 8 8 8 8 9 9 9 9 8 8 8 7 7 7 6 6 6 6 5 5 4 3 3 4 6 7 8 8 9 10 11
6 4 7 6 1 3 5 6 7 5 5 6 5 4 3 3 1 2 4 7 8 7 9 10 10 11 12 9 10 14 14 16 19 20 21 23 21 17 15 14 14 12 11 11 11 12 11 11 11 11 11 11 11 11 10 11 10 9 9 8 8 8 8 8 8 8 9 9 9 8 7 7 9 9 8 8 7 7 6 6 5 5 5 5 4 3 2 2 3 4 6 7 8 8 10 11 12
4 4 6 4 5 7 7 7 7 6 6 6 5 4 2 3 2 2 4 7 8 10 10 11 12 13 14 11 13 15 14 16 18 19 21 22 21 19 15 14 14 13 13 12 12 14 13 13 12 11 13 12 11 11 11 11 10 9 9 9 9 9 8 8 8 8 9 9 9 8 8 8 9 8 8 8 8 7 6 6 5 4 4 3 3 2 1 1 3 4 5 7 7 9 10 10 12
3 4 3 4 7 6 6 6 6 6 5 6 6 4 3 1 3 5 6 8 7 9 9 9 12 13 16 14 17 17 14 17 18 19 21 22 22 21 16 14 14 13 14 13 13 16 15 15 14 13 15 15 13 12 12 11 10 10 10 10 9 9 9 8 8 8 9 9 9 9 9 8 8 8 8 8 8 8 7 6 5 5 4 3 2 2 1 2 3 4 6 7 8 9 10 10 11
2 3 3 6 4 4 6 4 6 6 4 5 6 5 5 4 5 8 9 9 5 4 4 3 6 8 16 16 18 19 16 18 19 19 21 22 23 22 20 15 13 13 13 13 15 17 17 17 16 15 16 16 14 13 13 12 11 11 10 10 10 10 10 9 9 9 9 10 10 10 9 9 9 9 9 9 9 8 8 7 6 6 5 4 3 3 2 3 4 5 6 6 7 7 8 9 9
2 2 5 5 2 4 6 3 6 6 5 5 7 7 8 8 8 8 10 13 8 8 9 5 4 5 14 15 18 20 18 20 21 21 21 22 23 23 22 18 15 15 14 14 17 18 18 18 17 16 17 16 15 14 14 13 12 12 11 11 11 11 11 10 10 10 11 11 11 10 10 10 10 10 9 9 9 9 9 8 7 7 6 6 5 4 3 3 4 5 5 5 5 5 6 8 7
5 3 6 5 3 3 3 2 3 4 5 6 7 8 9 9 8 5 9 14 12 14 16 12 6 6 13 15 17 19 18 20 21 22 20 20 21 22 22 19 16 16 15 18 19 19 18 18 18 17 17 16 15 14 14 13 13 12 12 12 12 12 11 11 11 11 12 11 11 11 11 11 11 10 10 9 9 9 9 8 8 7 7 6 5 5 5 5 5 4 3 3 4 5 6 8 7
8 5 7 5 2 1 1 2 4 5 5 6 7 10 11 9 8 8 14 17 12 14 18 15 9 8 12 15 17 18 19 20 20 22 21 19 20 20 21 20 18 17 16 18 19 19 19 18 18 17 16 16 15 14 14 13 13 12 11 12 12 12 12 12 12 12 12 12 12 12 12 12 11 10 10 9 9 9 9 8 8 8 7 7 6 6 6 5 3 3 3 3 4 5 6 8 8
7 5 5 4 2 2 3 6 7 6 7 7 9 13 11 5 6 10 15 15 10 12 15 13 11 10 12 14 17 18 19 20 21 22 22 20 20 21 22 21 20 19 17 16 16 18 20 19 18 18 16 14 13 12 12 12 12 12 11 11 12 12 13 13 13 13 13 13 12 12 12 13 12 11 10 9 9 9 9 8 8 8 8 8 8 6 5 4 3 3 4 5 5 6 7 8 10
5 3 2 3 5 6 7 8 9 9 9 8 9 11 11 5 4 7 6 5 7 9 10 10 11 12 12 14 16 18 18 20 21 21 20 20 20 21 21 22 21 19 18 17 16 15 20 22 20 19 17 15 13 12 11 11 11 11 11 11 11 11 12 13 13 13 13 13 13 13 13 13 13 12 11 10 10 9 9 9 9 10 8 7 7 5 4 3 3 5 6 8 7 7 6 6 7
5 3 2 5 9 10 10 11 12 9 6 5 6 12 15 7 6 11 8 5 7 5 8 11 12 12 12 14 15 17 18 19 19 20 21 22 22 21 21 22 21 18 18 20 18 14 18 23 23 20 19 17 15 14 12 11 11 11 11 11 10 11 11 12 12 12 13 13 13 13 13 13 13 12 11 10 10 10 10 10 10 9 6 5 5 5 6 6 6 7 8 10 9 7 6 5 5
3 1 4 7 9 11 13 14 9 5 5 3 4 12 15 10 12 16 14 14 12 6 9 10 11 12 12 13 14 16 18 18 19 21 22 23 22 21 21 22 21 18 16 19 19 17 17 22 25 22 21 20 17 16 15 13 12 12 12 11 11 11 11 11 11 11 12 12 12 12 13 13 12 11 11 11 11 10 11 10 8 6 4 5 6 7 9 8 7 7 7 8 7 6 5 5 4
3 1 4 6 7 10 14 12 4 3 6 4 3 8 10 10 14 16 14 15 11 7 10 10 11 12 12 13 14 16 17 19 21 23 23 22 22 22 21 20 21 19 16 16 18 19 17 18 25 26 23 21 19 18 17 15 14 13 13 12 12 12 11 11 11 11 12 12 12 12 12 12 12 11 11 12 12 11 11 9 7 5 5 6 6 6 8 6 6 6 5 5 5 5 5 4 3
5 2 2 5 7 8 6 4 3 3 4 6 7 8 8 10 7 9 11 11 9 8 10 10 12 12 13 14 14 16 17 19 21 22 23 23 23 23 22 20 21 20 17 16 18 20 20 20 25 27 25 23 21 20 19 17 16 15 14 14 14 13 13 13 13 13 13 13 14 14 14 13 13 13 13 13 12 12 10 8 7 6 7 7 5 5 7 4 4 5 5 5 4 3 4 4 4
5 4 4 6 7 6 5 4 4 4 2 7 9 7 7 10 4 5 4 8 8 9 10 10 12 13 13 14 15 15 16 18 19 21 23 24 24 24 24 22 21 20 18 17 17 18 21 25 27 27 26 25 23 21 20 19 18 17 17 16 15 14 15 15 15 15 15 16 16 16 16 15 15 16 16 14 12 10 9 6 6 7 9 8 4 4 6 3 3 5 5 5 3 2 3 3 3
7 7 7 7 8 7 4 4 3 4 3 7 11 7 4 6 2 3 1 4 6 9 10 10 12 12 13 13 14 15 15 16 20 22 23 24 25 25 25 24 22 20 18 18 17 17 19 24 28 27 26 26 23 23 22 22 20 19 18 18 17 16 16 16 17 17 17 18 18 18 18 18 18 18 17 17 14 10 8 7 7 8 9 7 4 5 5 3 4 5 4 4 3 2 2 3 4
8 8 7 8 10 8 5 3 3 3 5 8 12 10 9 8 8 8 6 4 5 8 10 10 10 11 12 13 13 14 15 18 21 23 23 24 25 25 25 24 24 21 19 18 17 17 18 20 25 26 26 26 25 24 24 23 22 21 20 20 19 19 18 18 18 19 19 19 20 20 20 20 20 20 18 17 16 12 9 9 8 9 9 7 6 6 5 5 6 5 3 3 5 5 4 6 7
9 9 8 8 9 8 6 3 3 3 5 8 10 11 12 12 14 18 14 8 8 10 11 11 11 11 12 14 15 16 17 19 22 22 22 24 24 25 25 24 25 24 21 19 18 18 18 20 24 25 26 27 26 26 25 25 24 23 23 22 22 21 21 21 21 20 19 20 21 21 22 21 20 19 18 16 15 13 10 10 9 9 10 8 7 6 6 7 7 6 3 3 6 7 6 6 6
12 11 10 10 9 7 7 5 3 2 5 8 11 13 13 12 12 17 18 13 12 13 13 13 13 12 13 15 17 19 20 21 22 22 22 23 23 24 25 25 26 26 24 22 20 20 21 23 25 27 27 28 28 28 27 27 27 26 25 25 25 25 24 24 23 21 18 17 19 21 22 22 19 18 17 15 15 14 12 11 10 10 10 10 8 7 6 7 7 6 4 5 7 7 7 6 5
12 12 12 11 9 8 6 6 5 4 4 9 12 14 15 14 12 14 17 13 11 13 14 16 16 14 15 15 17 21 23 22 21 22 23 24 23 22 24 25 26 27 27 26 25 24 26 27 28 30 30 30 31 31 30 30 30 29 29 29 28 28 27 26 25 23 20 18 18 20 21 21 21 20 18 14 14 14 12 10 10 10 10 10 9 8 8 8 9 8 8 8 7 5 6 6 5
12 13 12 11 11 9 5 4 6 6 4 8 11 15 16 15 14 14 16 14 13 15 16 17 18 17 17 17 18 20 20 21 22 24 24 24 24 23 24 25 26 28 29 30 30 29 29 29 30 32 32 32 33 33 33 32 32 32 31 31 31 30 29 28 27 25 24 23 21 22 21 20 21 21 19 16 15 14 12 10 10 11 10 10 10 10 10 11 12 12 10 9 7 6 7 8 5
12 10 9 8 9 8 5 5 8 6 4 6 9 12 14 15 16 16 17 16 16 17 18 18 18 17 17 17 18 18 17 19 22 25 26 25 24 24 25 26 26 27 28 30 33 33 33 33 34 35 35 35 35 35 35 34 34 33 33 32 31 31 29 29 28 26 25 24 22 22 22 21 20 20 19 18 18 17 14 12 12 12 11 11 12 12 12 12 12 11 9 7 7 7 9 10 7
11 9 8 8 8 7 6 6 8 7 5 6 9 10 12 14 15 16 20 23 21 19 19 19 19 18 19 19 17 16 18 21 22 23 25 25 25 26 26 27 27 28 29 30 33 35 36 36 37 37 37 37 37 36 35 35 34 33 32 32 31 30 29 28 27 25 24 23 22 22 22 21 21 20 20 20 20 19 16 14 14 13 13 14 14 14 13 12 12 11 8 7 7 7 8 10 7
10 11 10 9 9 9 6 2 5 6 8 8 9 9 10 12 15 15 18 23 24 24 23 22 22 21 21 20 17 18 21 23 23 23 24 25 27 27 27 27 27 28 30 30 32 34 36 37 38 38 38 38 38 37 35 34 34 33 32 32 31 30 28 26 25 25 24 24 24 23 22 21 22 21 21 21 22 21 19 17 17 17 16 14 14 14 13 12 13 11 9 8 9 8 7 9 7
10 9 11 10 10 9 7 3 2 4 6 6 6 7 6 6 12 13 11 15 21 24 24 23 22 21 23 23 22 24 26 25 25 25 24 25 26 27 27 27 28 30 31 31 32 33 34 36 37 38 38 38 38 38 36 35 35 35 34 34 35 33 30 30 29 28 26 25 26 25 24 23 23 23 23 21 20 21 20 19 19 19 17 15 15 16 14 14 14 12 11 10 11 11 10 10 8
9 7 10 13 11 8 7 5 3 4 5 2 5 7 6 5 8 9 9 11 17 21 20 21 22 20 21 25 27 30 30 28 28 27 26 26 27 27 27 28 29 32 33 33 32 33 34 35 36 37 38 38 39 39 38 37 37 37 37 37 38 37 36 35 33 31 30 28 28 28 27 26 25 25 24 21 19 19 20 19 19 18 17 18 19 18 17 16 15 13 12 11 13 14 11 11 10
7 6 8 12 11 9 7 5 5 5 6 3 6 8 8 8 8 7 9 11 13 17 17 17 21 22 21 23 29 32 31 30 29 28 29 30 30 30 30 29 29 29 32 34 34 35 35 35 35 36 37 38 39 39 39 39 39 39 39 39 39 39 38 37 35 34 33 31 30 29 28 26 27 27 25 23 21 20 21 20 20 20 20 21 21 19 19 17 16 17 16 14 15 15 12 11 11
4 6 6 9 9 8 7 7 6 3 4 6 8 6 6 8 5 4 9 12 12 14 15 14 17 21 22 22 27 32 32 31 30 29 30 31 32 32 31 30 28 27 30 34 35 35 36 36 35 35 36 37 38 38 39 40 40 40 40 41 41 41 39 38 36 35 35 33 30 27 26 24 25 25 25 25 24 23 23 23 24 23 22 22 20 19 19 18 17 19 19 17 16 15 12 11 10
5 6 5 5 6 5 4 6 4 1 4 8 7 6 6 8 6 6 7 9 11 11 12 13 16 21 22 22 27 32 33 33 32 31 30 30 30 31 30 30 29 27 30 34 34 35 36 36 36 37 37 37 37 37 38 39 40 41 41 41 41 41 40 38 37 36 35 34 31 27 26 25 25 24 25 26 26 25 24 24 25 24 23 22 20 19 19 19 19 19 19 19 16 15 12 11 11
11 8 7 5 3 2 1 3 1 2 7 6 8 10 8 7 5 6 7 7 9 9 9 12 16 20 21 23 27 31 32 34 34 33 31 30 29 30 30 31 30 29 29 33 35 35 36 36 36 37 37 37 38 37 37 38 40 41 42 41 41 41 39 39 39 38 36 35 33 30 27 27 28 27 27 28 27 26 24 24 24 24 24 24 22 20 19 20 21 20 20 19 17 16 14 12 13
12 7 8 6 2 2 1 3 3 6 6 1 4 9 9 9 4 2 5 5 6 8 9 10 13 18 19 22 27 29 29 30 33 34 33 32 31 31 31 31 31 31 31 33 35 37 37 37 37 37 37 38 38 38 38 38 39 41 42 42 42 40 38 38 39 39 38 37 36 32 29 29 31 29 28 28 29 29 26 23 23 22 24 24 22 22 21 21 22 23 23 21 19 18 15 15 14
8 7 9 6 4 4 4 5 4 7 5 2 1 4 7 11 8 7 11 10 9 10 11 12 13 16 18 19 25 30 30 28 29 32 32 31 32 32 33 33 33 34 34 33 35 37 38 38 38 38 39 39 39 39 39 39 40 41 42 43 43 40 38 37 37 37 38 39 38 36 33 34 35 32 29 29 30 29 26 23 22 22 23 23 22 23 23 22 24 27 26 23 20 18 17 16 15
9 9 10 7 6 6 6 6 4 6 4 5 5 3 7 9 6 10 13 10 11 13 15 17 17 17 17 15 17 24 28 29 29 30 30 29 30 30 33 34 35 36 35 35 36 37 39 40 40 40 40 40 40 41 41 41 42 42 42 43 43 41 39 37 36 35 36 39 40 39 38 37 37 34 31 31 29 27 25 23 22 23 24 24 23 24 24 23 24 26 26 23 20 19 19 18 16
9 7 7 8 6 6 6 5 6 6 2 6 8 4 5 4 2 1 4 4 7 11 14 16 16 19 22 21 19 19 22 26 28 30 31 31 31 31 31 33 36 37 37 38 38 38 39 40 41 41 41 41 41 41 42 42 43 43 43 43 43 42 40 38 37 35 36 38 39 39 40 40 37 34 32 32 29 26 26 25 23 24 25 25 25 24 24 23 22 24 25 23 21 21 20 18 17
4 3 6 7 5 5 4 1 3 3 1 4 7 4 5 3 4 6 7 6 7 9 13 14 16 20 22 24 26 25 23 23 24 26 28 29 31 32 32 32 33 34 34 36 38 38 40 40 41 42 41 41 41 41 42 42 43 44 44 44 43 42 40 39 39 38 38 38 38 39 40 40 37 34 33 31 28 26 27 27 26 25 26 26 26 25 26 25 23 24 25 24 23 22 20 19 18
4 4 6 3 1 3 5 2 2 1 5 5 6 6 7 6 9 10 12 13 11 9 10 12 16 19 18 19 24 26 26 25 25 26 25 25 27 29 30 30 30 30 29 30 31 34 37 39 41 43 43 43 43 42 42 42 42 43 44 44 44 43 43 41 40 40 39 38 38 39 39 39 36 34 32 30 28 28 28 27 27 27 27 27 28 28 28 26 23 24 25 24 23 23 21 20 18
7 7 7 5 3 3 4 4 3 3 7 6 7 9 8 6 6 3 8 13 11 9 9 9 12 14 14 19 24 25 26 27 28 29 29 27 25 25 25 25 26 26 26 26 26 27 30 34 38 41 44 46 46 45 43 43 43 43 43 43 44 44 43 42 41 41 39 38 39 39 39 39 36 33 32 30 29 30 30 29 28 28 28 27 28 27 25 23 23 26 26 25 25 23 22 20 19
3 6 9 7 3 5 6 5 5 7 7 5 7 10 8 8 7 3 6 8 7 7 9 9 10 11 12 17 21 20 20 21 23 26 29 29 29 27 26 25 25 25 25 25 25 25 27 30 33 37 41 45 47 46 45 44 43 42 42 42 42 42 42 42 41 41 40 38 39 39 38 37 34 33 33 32 31 31 32 31 29 28 27 26 26 25 22 22 25 28 28 27 26 24 22 21 19
1 3 9 7 5 5 7 6 3 4 6 5 5 7 7 8 10 10 12 10 7 9 8 8 11 12 11 10 12 14 15 15 16 19 23 27 29 29 29 29 28 26 25 26 26 27 27 29 31 34 38 42 45 46 46 46 44 42 41 40 40 39 40 41 41 41 40 39 39 39 37 35 34 34 35 34 32 31 33 34 31 29 27 25 25 25 23 23 27 29 29 28 26 24 23 21 19
4 6 10 9 4 1 3 5 4 3 5 5 6 7 6 3 6 9 12 11 11 11 9 7 8 7 6 5 7 10 10 9 10 12 16 19 22 24 25 27 28 29 28 28 29 31 30 30 31 32 35 39 42 44 46 45 43 41 40 39 37 37 37 38 39 40 40 40 39 38 36 34 34 35 34 33 33 31 32 35 32 28 26 24 26 28 26 26 29 32 30 28 27 25 24 22 20
9 7 8 9 7 4 3 6 6 4 5 5 5 8 6 3 4 5 7 8 9 9 8 7 6 3 3 5 6 7 9 10 11 13 15 17 18 19 20 21 24 27 30 31 32 32 31 31 31 31 31 33 37 41 42 42 41 40 39 37 36 36 36 36 38 39 39 39 39 37 36 34 34 34 33 33 33 31 32 35 32 28 26 24 26 30 29 28 32 33 31 29 27 26 24 22 20
Wind_Direction
271 287 314 315 321 320 287 268 257 201 249 269 68 23 111 80 56 166 145 144 156 118 83 95 117 107 112 347 20 39 31 37 28 25 116 120 144 160 170 173 175 174 153 145 153 154 157 160 165 163 154 150 146 138 131 132 124 107 99 84 28 16 15 23 24 33 54 81 91 99 101 100 107 122 130 122 114 107 99 98 99 97 97 99 98 95 90 84 85 83 77 72 70 71 71 73 76
272 303 321 315 316 301 276 256 270 193 235 233 109 36 94 110 199 199 148 124 82 109 122 126 135 110 358 336 342 53 50 38 46 76 105 132 142 160 168 168 173 174 156 141 150 157 163 174 173 169 170 161 155 149 137 145 141 127 124 61 19 23 62 82 88 91 76 89 100 98 97 97 104 115 121 113 101 98 99 97 94 93 90 90 90 90 89 87 88 83 77 74 73 74 73 75 77
272 318 328 317 292 271 276 247 263 257 251 255 104 91 108 161 188 111 88 80 82 117 131 127 145 128 324 211 193 360 73 48 67 92 116 135 145 158 160 161 167 174 163 143 148 164 171 179 177 168 171 164 158 155 148 155 150 146 151 9 353 46 93 104 106 108 97 100 106 103 105 102 105 109 106 104 100 98 99 98 94 91 86 87 89 89 89 87 86 81 77 76 75 74 75 76 78
287 314 318 305 271 247 258 241 266 283 268 336 85 109 145 198 128 90 83 87 99 131 140 151 161 155 284 334 34 57 95 78 81 95 122 135 171 164 157 161 165 172 167 152 151 163 169 171 169 148 148 156 161 162 159 163 162 170 201 336 342 76 111 121 106 111 110 107 110 110 113 106 103 105 105 104 101 99 99 99 96 93 91 92 93 92 90 89 88 83 79 77 76 76 78 79 78
302 316 302 286 274 275 282 267 272 267 322 22 44 102 151 196 114 104 102 101 111 135 152 179 168 153 233 359 356 41 97 97 96 99 122 139 188 170 159 161 162 171 167 158 156 156 162 163 151 134 133 146 158 168 172 176 171 180 267 334 65 80 112 130 117 113 116 122 120 108 103 100 99 99 103 106 104 104 102 98 93 92 96 95 94 97 99 101 98 86 81 80 81 80 81 80 78
341 321 311 277 273 306 280 255 236 230 46 8 357 74 136 164 124 122 121 110 115 130 170 197 193 149 191 122 45 52 102 118 99 113 135 150 176 169 160 156 158 164 161 155 155 156 161 160 146 136 138 145 156 173 178 181 174 183 227 50 64 79 100 122 124 111 107 116 110 95 89 93 96 100 100 101 107 109 103 98 94 94 95 93 92 98 105 106 99 90 87 86 86 83 81 79 76
322 281 268 251 241 260 263 257 257 210 72 12 360 52 95 141 134 135 140 136 141 156 191 193 235 224 167 140 116 87 130 125 107 133 166 178 167 168 159 154 158 159 161 154 150 160 160 158 150 143 149 152 162 175 175 175 173 189 204 42 63 96 101 111 114 105 102 102 101 97 95 94 94 101 101 98 103 106 104 106 102 100 101 99 97 97 100 104 101 96 93 90 88 85 81 77 75
246 268 267 270 236 210 263 271 274 350 73 41 26 41 52 136 150 153 163 164 162 166 186 178 225 241 136 130 127 100 140 141 141 141 174 179 161 165 157 155 159 160 163 154 155 162 157 159 155 148 153 158 170 178 173 169 174 195 206 46 85 107 110 112 114 113 112 108 110 114 114 112 106 103 105 104 104 104 105 112 109 104 107 107 106 102 101 104 102 97 94 91 89 86 83 78 75
247 261 261 267 258 226 254 263 258 342 91 84 85 91 80 160 169 170 174 161 157 164 179 177 203 241 104 143 120 100 127 143 149 140 155 161 160 164 155 157 161 161 159 151 161 158 157 162 154 149 153 162 174 176 173 173 182 203 200 106 127 120 118 116 121 128 129 130 133 132 127 122 116 113 115 114 108 104 106 111 111 109 112 114 114 111 108 104 100 97 92 91 89 86 83 79 75
234 244 267 268 262 256 243 237 198 147 111 86 74 131 152 178 182 184 180 161 165 167 158 166 204 242 344 145 120 122 138 136 153 147 148 160 165 164 156 164 166 162 155 146 154 153 159 160 153 153 155 167 179 175 170 176 187 194 163 109 124 114 118 127 129 135 141 146 151 143 134 123 114 116 120 120 111 103 106 110 108 107 112 117 119 117 113 107 102 98 93 90 88 85 82 78 74
230 216 274 279 250 249 248 237 173 148 114 120 143 138 164 179 185 191 182 165 170 175 150 170 209 223 240 196 115 171 182 144 154 150 152 169 168 163 163 169 169 163 154 145 151 155 155 153 157 159 161 173 180 178 169 169 178 152 125 116 109 101 112 136 133 132 138 144 153 150 147 132 117 120 117 112 110 108 110 112 110 107 111 114 118 118 112 108 103 98 95 92 87 83 80 75 70
240 204 217 252 252 256 280 333 289 113 149 190 138 131 164 177 184 189 185 174 178 198 176 188 205 183 221 191 127 174 187 150 154 157 162 172 168 164 167 171 169 164 156 146 149 155 152 151 159 165 171 177 173 172 158 123 136 121 115 121 117 109 111 129 134 133 127 125 144 149 151 139 124 123 111 106 109 111 112 114 116 115 116 115 113 111 106 105 101 98 96 92 87 83 76 70 63
237 228 219 243 258 278 317 304 300 293 240 147 91 113 162 177 189 192 190 184 187 208 177 179 169 226 235 143 143 165 164 154 157 164 167 169 168 166 168 172 167 161 156 147 148 152 154 156 159 169 179 182 176 170 155 128 129 119 111 126 131 127 119 124 137 134 125 128 142 148 150 141 130 122 111 113 111 107 109 112 117 117 115 114 110 106 103 100 97 96 93 90 85 79 71 64 56
234 239 241 255 249 270 273 268 278 233 211 75 67 101 158 177 200 203 202 197 186 167 148 168 194 241 234 170 168 165 160 158 160 167 167 168 168 166 167 170 164 160 156 150 154 154 157 158 160 172 179 187 185 181 177 160 147 129 119 141 140 135 133 133 139 135 135 146 149 148 147 141 133 125 118 118 114 112 112 111 114 114 112 110 108 105 101 98 94 92 88 85 78 70 62 52 45
229 244 244 259 252 245 230 252 306 246 64 62 47 91 163 185 204 219 234 223 128 134 163 181 200 229 230 215 143 157 168 159 162 170 170 171 168 166 168 168 162 160 158 152 158 159 160 160 162 169 173 183 185 185 185 181 176 153 150 155 139 141 147 146 147 146 148 156 156 148 145 146 142 134 129 122 118 116 113 114 113 113 113 109 106 101 97 96 92 89 81 73 64 55 47 37 31
215 240 239 250 251 233 197 201 235 240 55 58 44 68 193 197 185 227 241 248 81 164 205 197 201 223 9 19 95 152 175 160 165 172 172 173 166 167 170 165 159 161 161 158 162 162 164 164 164 164 168 176 177 188 186 181 178 160 164 157 143 150 154 158 158 157 156 156 148 146 152 153 151 144 136 129 125 122 117 117 116 116 115 111 107 100 95 92 86 81 70 61 51 42 33 23 18
197 225 234 241 235 222 167 175 163 250 48 55 56 47 231 190 174 234 234 230 248 187 200 193 204 214 222 201 140 159 170 162 171 173 174 173 164 168 170 162 162 168 167 165 168 166 168 167 164 162 166 171 171 187 188 177 168 161 167 157 153 157 159 165 161 161 161 159 148 150 160 158 156 152 144 140 137 133 129 124 124 124 118 113 107 101 98 90 80 68 56 49 39 31 20 9 6
189 218 224 238 236 215 55 53 28 348 21 33 39 21 273 237 149 216 237 228 227 207 203 211 216 211 216 223 164 163 169 165 174 176 177 174 166 169 171 170 171 175 175 171 174 173 171 168 165 167 168 168 171 183 184 171 164 167 171 163 164 163 164 166 163 166 164 163 161 164 168 161 161 159 153 151 147 141 136 134 135 131 122 118 111 109 109 94 77 55 44 37 28 18 7 1 359
215 229 218 234 235 81 57 55 39 19 7 359 19 37 299 297 8 190 240 235 211 217 217 211 218 209 213 220 168 171 180 171 178 181 182 178 174 174 174 180 177 177 181 176 181 178 173 173 170 171 172 169 171 179 179 171 169 174 175 171 173 172 171 170 167 169 168 169 169 174 174 167 168 164 161 157 153 149 144 146 144 137 129 123 123 126 123 91 55 41 33 24 15 7 1 357 353
238 242 229 207 109 94 67 56 47 30 1 343 2 20 313 282 300 217 250 261 226 230 230 206 216 206 201 206 173 176 184 179 186 188 186 185 183 180 177 186 183 181 183 180 186 181 175 177 174 174 176 174 174 177 177 174 176 179 179 179 182 181 177 173 172 173 174 174 173 177 177 175 172 165 166 165 162 160 156 160 156 149 145 142 154 163 142 38 22 23 19 9 3 357 355 351 347
212 225 237 129 131 115 76 57 43 27 4 345 339 326 309 308 258 241 249 265 241 240 242 215 228 206 189 197 179 178 183 183 194 194 191 191 189 187 184 189 188 187 189 185 190 185 178 179 176 178 180 178 179 178 179 181 182 183 183 186 188 185 180 176 175 178 179 177 177 178 178 176 172 171 175 174 171 170 169 172 172 171 172 182 200 216 272 336 358 5 2 357 351 345 343 340 337
193 199 99 106 145 120 95 72 39 23 7 343 329 328 329 327 267 244 241 252 258 306 309 240 263 209 194 203 187 186 189 185 195 198 197 196 195 194 190 192 191 193 195 190 193 189 181 179 179 180 180 180 181 178 181 185 185 186 187 191 192 187 184 182 179 182 182 181 181 179 177 176 178 182 182 181 180 178 180 183 183 189 196 205 220 241 271 317 333 344 347 340 335 330 328 328 326
236 194 125 116 109 100 104 69 36 18 4 356 340 334 317 298 274 254 240 246 262 299 295 281 309 206 202 214 198 198 197 189 194 198 201 200 199 200 195 194 196 198 199 197 199 195 187 183 183 183 181 180 180 179 181 183 184 185 187 190 193 191 189 187 185 185 185 185 184 181 177 179 186 188 187 187 187 187 190 193 196 200 211 219 231 248 268 301 312 322 324 324 326 320 324 330 330
268 199 161 148 96 102 103 44 10 349 337 340 334 318 299 283 286 287 248 250 261 271 270 267 276 194 195 211 208 211 208 199 198 197 203 206 204 203 200 197 198 202 207 208 205 200 197 192 189 188 184 182 180 179 178 180 184 185 187 190 193 195 194 191 191 190 189 188 186 184 181 184 189 191 192 192 192 197 199 202 208 214 224 233 245 259 276 296 307 308 305 320 320 311 325 330 330
270 211 166 171 157 201 304 308 297 306 304 319 318 302 294 280 290 292 264 261 259 255 261 261 249 201 195 206 210 214 210 205 199 195 201 206 208 207 203 202 202 206 213 215 210 206 206 201 199 196 192 189 183 180 179 180 184 186 189 193 196 198 197 195 195 195 193 190 188 187 185 186 191 195 196 196 200 204 207 213 220 227 237 246 256 269 276 283 295 296 295 308 307 310 321 318 315
245 205 163 183 214 246 284 287 285 296 292 299 300 298 298 284 291 283 263 257 246 241 251 250 232 211 203 202 206 210 207 205 200 196 199 201 206 207 205 205 205 209 216 219 213 211 212 208 207 205 201 200 194 186 184 183 184 185 188 194 198 200 199 198 195 195 195 193 191 191 191 190 191 196 200 202 207 211 216 221 227 235 245 254 260 267 275 275 283 290 293 299 306 309 312 312 312
170 162 174 226 267 274 273 277 280 286 285 282 284 295 296 280 269 267 239 207 222 232 235 225 211 207 205 200 204 207 205 208 204 197 198 200 204 206 207 207 207 207 211 217 214 211 214 210 209 210 207 206 205 200 195 191 188 186 189 194 198 201 201 200 196 194 195 195 196 196 196 196 194 197 203 207 213 219 224 227 234 241 246 258 262 260 271 283 286 286 288 293 300 297 296 301 303
138 154 243 248 266 268 262 269 274 277 274 270 288 293 286 264 226 246 238 231 252 233 212 209 204 203 202 203 207 208 206 207 205 199 198 201 203 203 207 209 209 206 206 213 213 208 213 212 211 212 211 209 211 210 207 202 196 192 193 195 199 203 203 202 201 198 196 198 202 202 201 201 199 201 206 210 218 224 229 233 238 243 244 258 268 265 273 282 286 289 291 297 304 302 301 302 296
144 203 250 254 269 267 258 263 267 267 263 263 313 295 274 241 227 240 236 242 255 230 206 207 205 207 202 201 208 212 209 204 202 203 204 204 204 202 205 209 209 207 207 211 212 208 211 213 212 213 213 213 213 214 214 211 206 202 201 202 204 206 206 206 207 205 203 204 205 206 205 204 203 207 210 214 222 227 234 238 239 247 249 252 263 275 286 291 288 290 294 300 309 311 314 313 306
168 180 254 253 265 263 254 254 245 254 260 221 241 280 266 246 234 223 217 228 232 207 207 208 201 204 203 200 205 212 213 210 208 210 210 206 206 204 204 208 208 207 208 209 211 210 209 211 212 214 215 215 215 217 217 216 215 212 211 212 212 212 212 212 212 213 214 213 213 213 212 211 209 213 218 220 222 227 239 244 242 251 257 262 274 289 294 293 286 290 293 294 303 313 317 311 308
179 139 244 239 249 250 221 207 198 233 237 180 210 253 261 272 243 184 199 219 211 208 213 207 201 200 202 202 204 211 216 217 216 216 216 210 207 209 207 205 207 207 207 208 210 213 214 215 214 215 217 217 217 218 219 219 218 218 219 220 220 219 219 219 219 220 221 222 223 223 221 221 220 222 228 230 229 231 240 247 253 258 253 262 280 288 280 275 283 291 286 284 297 313 308 311 329
189 180 216 216 233 236 174 164 206 230 199 171 212 250 258 265 258 125 197 220 209 230 225 206 205 201 202 205 207 211 214 219 219 218 221 218 212 214 214 206 204 205 206 208 210 211 216 221 221 219 220 219 219 220 221 222 221 221 223 225 227 226 226 225 225 226 227 228 229 229 229 228 229 232 235 237 237 236 239 241 251 257 255 263 273 274 276 271 260 270 279 285 297 308 303 317 330
200 210 223 201 207 226 205 177 196 230 229 196 215 251 270 248 228 86 325 252 226 244 243 222 210 206 205 206 209 212 209 214 224 225 224 225 221 218 219 213 207 206 206 208 209 209 213 222 224 221 221 221 220 222 223 223 223 224 226 229 230 230 231 230 230 232 232 232 233 233 233 234 235 237 240 241 240 241 243 243 241 249 259 266 252 248 264 257 245 259 289 299 299 304 308 304 284
201 211 226 211 207 219 215 163 139 216 239 225 222 240 256 260 275 283 289 270 240 248 254 242 220 211 212 209 210 213 209 213 229 237 231 230 228 222 221 220 215 210 209 208 208 210 211 219 224 220 220 220 220 223 224 225 225 226 228 231 233 232 233 234 233 234 234 236 236 236 237 237 236 239 242 244 245 245 245 247 242 246 255 257 249 242 237 242 250 255 261 279 291 293 283 286 283
195 200 214 214 209 216 221 180 133 186 232 245 238 242 249 252 264 269 266 240 232 253 257 253 239 222 215 215 219 219 216 221 234 245 240 233 231 227 224 224 222 217 213 210 208 211 211 216 223 221 219 219 221 224 225 226 226 228 229 231 234 234 233 234 234 234 235 237 237 237 238 238 238 239 241 242 247 248 246 248 245 243 250 252 254 247 237 254 275 281 267 248 270 284 291 305 312
199 203 214 213 208 215 227 207 148 167 242 254 251 255 260 254 250 257 258 235 226 251 254 252 248 234 222 219 224 228 227 229 236 241 242 237 234 233 228 225 227 224 220 217 211 211 214 217 222 222 220 221 224 225 225 225 226 227 229 231 233 234 234 234 233 232 231 232 235 237 237 238 239 238 239 240 245 247 244 245 244 243 244 244 250 247 244 262 280 286 268 246 251 270 292 313 343
205 212 223 224 228 225 210 195 154 140 246 257 253 259 263 263 259 252 251 234 219 241 247 246 246 237 228 220 223 232 233 234 237 236 238 242 239 236 232 227 228 227 225 224 220 217 218 219 223 225 224 225 227 228 228 227 226 227 228 230 233 234 235 235 235 236 233 231 232 235 236 239 241 240 239 238 241 244 242 241 241 242 244 244 248 242 239 252 262 264 254 249 254 264 280 294 334
211 221 225 227 238 238 220 178 152 151 222 257 255 260 261 259 261 257 252 240 227 236 242 244 245 241 234 225 226 233 234 233 237 237 236 240 241 237 234 230 228 228 226 226 226 226 224 223 225 228 229 229 230 231 232 231 230 230 231 233 235 238 239 240 240 242 243 242 238 237 239 240 243 244 243 240 240 242 241 239 235 237 244 248 251 244 242 251 257 259 251 247 255 258 271 279 301
216 224 224 230 235 239 241 180 159 163 210 259 261 262 263 260 258 254 250 247 243 238 238 243 244 244 239 230 227 224 225 233 237 238 238 239 240 239 236 234 231 230 229 227 227 228 228 227 228 229 231 232 233 234 234 234 233 233 235 236 238 241 244 246 247 247 248 248 243 240 240 239 241 246 246 244 243 242 238 239 238 239 242 242 247 249 252 258 257 254 243 244 256 258 270 269 265
218 222 220 231 230 236 246 183 169 184 209 261 279 274 269 265 260 252 244 244 248 243 237 239 238 240 241 237 232 220 221 234 237 236 238 239 239 238 237 236 234 232 231 229 228 228 229 230 230 231 232 234 235 235 235 236 235 235 236 239 241 243 246 248 249 247 246 244 241 240 239 239 242 245 245 243 244 242 238 239 241 243 244 240 243 251 257 259 253 248 240 241 254 258 272 267 245
215 221 221 230 231 234 249 180 168 208 226 241 265 279 271 254 248 246 236 231 239 244 238 235 231 231 237 237 234 228 227 234 237 236 236 236 236 236 237 237 238 236 234 231 229 229 230 231 232 232 233 234 236 237 235 235 236 235 235 236 238 240 240 241 241 241 240 238 239 240 238 238 242 243 242 242 243 244 240 238 241 243 244 242 246 252 253 251 245 245 245 242 250 247 249 260 246
215 220 223 235 245 238 238 231 214 264 255 213 217 267 275 240 239 243 235 221 227 235 233 228 226 224 228 232 233 236 237 237 238 235 234 236 235 235 237 237 238 238 237 235 233 232 233 233 234 235 235 236 237 238 237 236 237 237 236 235 235 235 234 234 234 234 235 234 234 235 233 234 239 240 242 245 244 243 240 239 244 247 244 242 247 247 239 238 240 246 251 248 251 246 231 243 253
225 200 203 226 243 242 233 236 231 267 291 154 184 253 282 286 266 254 248 235 226 228 225 220 220 220 222 230 236 240 243 242 241 236 232 236 237 234 237 239 238 238 238 238 236 235 236 235 235 236 238 238 238 239 239 238 238 240 240 239 239 239 238 239 239 237 236 235 234 235 233 231 233 235 241 246 242 239 239 238 242 245 242 238 241 242 234 232 239 245 251 247 245 248 242 243 252
224 158 182 214 226 232 230 238 241 262 311 299 216 237 274 283 274 248 238 245 239 230 223 215 216 219 217 224 236 242 244 243 242 239 235 237 240 239 241 244 245 243 238 237 237 237 237 237 236 236 238 239 240 240 241 240 239 240 241 242 243 243 243 245 246 245 244 241 239 239 237 234 234 235 239 244 243 238 235 234 236 239 239 238 238 241 238 234 241 246 248 247 242 246 251 247 242
200 136 188 209 213 231 238 240 249 295 326 274 234 219 254 267 260 217 219 233 241 235 231 226 220 221 217 217 231 240 243 243 242 241 239 239 241 244 246 246 249 248 239 235 236 237 237 237 237 237 237 239 240 240 241 242 242 241 241 242 243 245 245 246 247 248 248 244 241 241 239 237 237 237 236 239 241 237 233 232 235 238 240 242 244 244 240 238 244 244 242 247 247 245 246 239 226
150 138 179 189 206 231 247 240 243 341 276 257 239 215 246 274 260 227 221 227 236 236 234 235 229 226 219 213 226 237 240 240 240 240 240 240 242 245 246 245 246 247 240 235 235 237 237 237 237 237 238 239 240 240 240 241 243 243 242 242 243 244 245 245 245 246 246 244 240 238 237 237 236 233 231 234 238 237 233 233 236 238 241 245 247 243 242 243 242 238 238 244 246 244 239 225 212
129 136 147 128 167 173 209 232 180 258 254 245 225 220 242 281 256 218 228 227 224 228 230 234 233 230 220 211 223 235 237 237 238 239 240 240 242 243 244 242 240 241 239 234 234 236 236 236 236 236 237 239 240 241 240 240 242 243 244 243 243 244 244 244 244 243 242 242 240 235 233 235 235 232 232 235 237 240 239 238 238 239 242 247 246 243 246 242 234 233 239 243 243 243 234 214 207
132 144 146 122 121 125 161 195 176 233 244 251 209 209 222 246 240 193 241 239 226 232 234 236 236 236 228 215 221 233 236 236 236 237 238 238 239 241 241 240 236 236 236 234 234 235 236 236 236 236 237 238 239 240 241 241 241 242 243 244 243 243 243 243 243 243 241 241 241 237 230 230 235 235 234 234 236 241 243 239 237 238 242 246 245 244 247 239 231 235 241 242 241 238 223 206 203
152 160 158 152 152 160 199 191 199 236 222 102 155 192 223 244 250 250 253 252 247 241 237 243 246 247 242 226 226 234 236 234 233 234 235 235 236 238 240 240 237 235 235 235 234 234 236 236 236 236 237 238 239 240 240 240 241 241 241 243 243 241 241 240 241 242 241 241 242 240 235 234 239 240 237 236 237 242 244 239 239 243 247 250 246 245 248 244 239 241 241 240 236 225 210 201 200
176 169 171 179 165 178 208 193 216 248 207 163 157 171 252 264 264 247 249 254 253 245 241 249 253 250 253 245 232 231 230 230 231 233 235 234 235 237 239 241 241 239 237 237 236 234 235 236 236 237 237 238 239 240 241 240 241 242 241 243 243 241 239 238 239 239 240 242 243 243 242 242 245 245 241 241 242 244 246 244 245 250 250 249 247 244 247 246 244 243 238 232 223 211 202 199 199
179 178 184 194 178 189 208 196 215 233 192 163 162 167 247 261 23 290 259 261 258 256 251 255 255 247 250 256 251 239 233 233 234 236 237 237 239 240 240 242 243 243 241 239 239 237 236 236 236 236 237 237 239 239 241 241 242 242 242 243 243 242 240 238 239 238 240 243 244 244 245 246 247 245 242 244 245 244 246 247 249 252 250 247 246 245 245 247 247 242 232 219 209 203 200 198 197
187 189 197 212 212 212 219 234 217 210 198 178 185 228 261 276 319 290 266 248 226 237 249 251 252 247 248 255 259 256 248 243 242 243 243 243 244 243 243 244 245 246 245 243 242 241 240 239 238 238 238 238 239 240 241 242 242 242 242 242 242 242 240 239 239 240 241 244 245 245 246 248 247 242 241 244 245 245 245 246 248 251 251 247 245 244 246 250 248 236 221 208 201 200 199 198 198
169 200 205 196 336 246 222 198 76 63 271 232 191 237 264 280 283 258 245 248 227 208 226 239 245 248 248 252 257 258 256 256 258 259 258 254 252 250 249 250 251 251 251 249 247 246 244 243 242 240 239 238 239 240 241 242 241 241 241 242 242 242 241 241 241 242 244 244 245 247 247 247 246 241 240 242 243 245 246 247 247 249 249 244 241 243 246 248 241 223 210 201 199 199 198 198 198
155 194 190 126 42 302 239 221 192 200 254 243 200 232 250 254 268 221 214 244 244 214 210 227 241 244 245 250 256 261 266 270 270 270 268 267 264 262 260 259 258 257 256 254 252 251 249 247 246 243 241 240 240 239 240 240 240 240 241 241 241 242 243 243 242 244 245 244 245 246 245 247 245 240 239 238 237 240 244 246 247 247 247 243 239 242 244 241 227 211 202 197 198 199 199 199 199
159 184 171 162 208 222 201 221 228 214 237 256 226 237 247 230 232 232 215 232 252 237 213 212 232 237 237 247 254 260 268 272 274 273 272 272 272 270 268 266 266 264 262 259 255 253 253 252 250 246 243 241 240 240 239 238 239 239 239 241 242 242 243 243 243 244 245 244 245 245 245 247 245 239 236 234 233 235 238 241 245 245 246 245 240 239 239 233 220 206 198 196 198 199 199 200 200
296 180 174 197 237 218 203 210 226 224 233 265 259 245 247 227 219 229 232 229 242 252 234 213 227 235 233 243 257 267 275 279 278 275 273 272 272 271 269 265 262 261 261 260 257 254 254 254 252 250 246 242 240 239 238 237 237 236 237 240 242 243 243 243 244 245 245 245 245 246 247 246 242 238 236 234 233 232 234 240 244 245 246 247 241 237 239 234 217 204 198 197 198 199 199 200 201
178 184 185 195 199 210 232 215 218 244 239 258 271 259 256 220 195 211 221 227 233 244 255 240 230 236 239 267 287 285 286 285 277 272 269 270 270 270 269 263 257 254 254 255 254 252 251 252 252 251 248 244 240 238 237 237 237 236 237 240 242 243 244 244 245 245 245 247 246 246 246 244 240 237 235 235 233 231 234 237 239 242 246 246 239 235 240 236 216 203 199 198 199 200 200 200 201
184 190 189 186 180 174 198 210 209 215 233 244 263 269 264 161 154 186 195 217 232 241 263 261 247 257 276 296 303 293 290 289 285 281 275 271 269 268 267 263 257 252 251 251 251 250 250 251 251 250 249 246 242 239 239 239 238 237 238 240 241 242 243 244 244 244 245 245 245 246 244 241 239 236 234 235 232 232 234 232 234 240 243 242 238 235 239 231 214 204 199 198 199 200 200 201 201